Mytilini, Greece

4:23 AM EEST on July 22, 2018 (GMT +0300)
Odysseas Elytis

Weather History for LGMT - April, 2018

Change the Weather History Date:

Monday, April 16, 2018

  Actual Average Record
Temperature  
Mean Temperature 66 °F -  
Max Temperature 74 °F 71 °F 81 °F (2016)
Min Temperature 59 °F 56 °F 44 °F (2003)
Cooling Degree Days 2    
Growing Degree Days 16 (Base 50)    
Moisture  
Dew Point 55 °F    
Average Humidity 65    
Maximum Humidity 82    
Minimum Humidity 41    
Precipitation  
Precipitation 0.00 in 0.04 in - ()
Sea Level Pressure  
Sea Level Pressure 29.97 in    
Wind  
Wind Speed 3 mph ()    
Max Wind Speed 8 mph    
Max Gust Speed -    
Visibility 6.2 miles    
Events      
Averages and records for this station are not official NWS values.
T = Trace of Precipitation, MM = Missing Value Source: Averaged Metar Reports

Daily Weather History Graph

Daily Weather History Graph

Search for Another Location

Airport or City:

Astronomy

Apr. 16, 2018 Rise Set
Actual Time 6:35 AM EEST 7:51 PM EEST
Civil Twilight 6:08 AM EEST 8:19 PM EEST
Nautical Twilight 5:35 AM EEST 8:52 PM EEST
Astronomical Twilight 5:00 AM EEST 9:27 PM EEST
Moon 7:06 AM EEST (4/16) 8:19 PM EEST (4/16)
Length of Visible Light 14h 11m
Length of Day
13h 15m
New Moon, 0% of the Moon is Illuminated
Apr 16
New Moon
Apr 23
First Quarter
Apr 30
Full
May 8
Last Quarter
May 15
New

Hourly Weather History & Observations

Time (EEST) Temp. Dew Point Humidity Pressure Visibility Wind Dir Wind Speed Gust Speed Precip Events Conditions
4:50 AM 60.8 °F 53.6 °F 77% 29.98 in 6.2 mi SSW 4.6 mph - N/A   Partly Cloudy
5:20 AM 60.8 °F 53.6 °F 77% 29.98 in 6.2 mi SW 4.6 mph - N/A   Partly Cloudy
5:50 AM 59.0 °F 53.6 °F 82% 29.98 in 6.2 mi WNW 4.6 mph - N/A   Partly Cloudy
6:20 AM 59.0 °F 53.6 °F 82% 29.98 in 6.2 mi WNW 4.6 mph - N/A   Partly Cloudy
6:50 AM 59.0 °F 53.6 °F 82% 29.98 in 6.2 mi WNW 4.6 mph - N/A   Partly Cloudy
7:20 AM 59.0 °F 53.6 °F 82% 30.01 in 6.2 mi WNW 4.6 mph - N/A   Partly Cloudy
7:50 AM 60.8 °F 53.6 °F 77% 30.01 in 6.2 mi North 4.6 mph - N/A   Partly Cloudy
8:20 AM 60.8 °F 53.6 °F 77% 30.01 in 6.2 mi North 4.6 mph - N/A   Partly Cloudy
8:50 AM 62.6 °F 57.2 °F 82% 30.01 in 6.2 mi NW 4.6 mph - N/A   Partly Cloudy
9:00 AM 63 °F 58 °F 78% 30.02 in 6 mi NW 4.6 mph - -   Scattered Clouds
9:20 AM 64.4 °F 57.2 °F 77% 30.01 in 6.2 mi NW 4.6 mph - N/A   Partly Cloudy
9:50 AM 64.4 °F 57.2 °F 77% 30.01 in 6.2 mi North 4.6 mph - N/A   Partly Cloudy
10:20 AM 66.2 °F 59.0 °F 78% 30.01 in 6.2 mi North 5.8 mph - N/A   Partly Cloudy
10:50 AM 68.0 °F 59.0 °F 73% 30.01 in 6.2 mi North 8.1 mph - N/A   Partly Cloudy
11:20 AM 68.0 °F 59.0 °F 73% 30.01 in 6.2 mi North 6.9 mph - N/A   Partly Cloudy
12:20 PM 69.8 °F 55.4 °F 60% 30.01 in 6.2 mi North 6.9 mph - N/A   Partly Cloudy
12:50 PM 69.8 °F 55.4 °F 60% 30.01 in 6.2 mi North 6.9 mph - N/A   Partly Cloudy
1:20 PM 71.6 °F 55.4 °F 57% 30.01 in 6.2 mi North 5.8 mph - N/A   Partly Cloudy
1:50 PM 71.6 °F 53.6 °F 53% 29.98 in 6.2 mi Calm Calm - N/A   Partly Cloudy
2:20 PM 71.6 °F 53.6 °F 53% 29.98 in 6.2 mi Calm Calm - N/A   Partly Cloudy
2:50 PM 71.6 °F 57.2 °F 60% 29.98 in 6.2 mi North 4.6 mph - N/A   Partly Cloudy
3:00 PM 72 °F 58 °F 53% 30.00 in 6 mi North 4.6 mph - -   Scattered Clouds
3:20 PM 71.6 °F 57.2 °F 60% 29.98 in 6.2 mi North 4.6 mph - N/A   Partly Cloudy
3:50 PM 71.6 °F 55.4 °F 57% 29.98 in 6.2 mi Variable 3.5 mph - N/A   Partly Cloudy
4:20 PM 71.6 °F 55.4 °F 57% 29.98 in 6.2 mi Calm Calm - N/A   Partly Cloudy
4:50 PM 73.4 °F 57.2 °F 57% 29.98 in 6.2 mi Calm Calm - N/A   Scattered Clouds
5:20 PM 73.4 °F 57.2 °F 57% 29.98 in 6.2 mi Calm Calm - N/A   Scattered Clouds
5:50 PM 71.6 °F 57.2 °F 60% 29.98 in 6.2 mi Calm Calm - N/A   Scattered Clouds
6:00 PM 72 °F 58 °F 52% 29.98 in 6 mi Calm Calm - -   Partly Cloudy
6:20 PM 71.6 °F 57.2 °F 60% 29.95 in 6.2 mi Calm Calm - N/A   Scattered Clouds
6:50 PM 69.8 °F 59.0 °F 68% 29.95 in 6.2 mi Calm Calm - N/A   Scattered Clouds
7:20 PM 69.8 °F 59.0 °F 68% 29.95 in 6.2 mi Variable 3.5 mph - N/A   Scattered Clouds
7:50 PM 69.8 °F 57.2 °F 64% 29.92 in 6.2 mi Calm Calm - N/A   Scattered Clouds
8:20 PM 68.0 °F 57.2 °F 68% 29.89 in 6.2 mi Calm Calm - N/A   Scattered Clouds
8:50 PM 69.8 °F 53.6 °F 56% 29.86 in 6.2 mi Calm Calm - N/A   Scattered Clouds
9:00 PM 71 °F 53 °F 43% 29.87 in 6 mi Calm Calm - -   Partly Cloudy
9:20 PM 69.8 °F 53.6 °F 56% 29.89 in 6.2 mi Calm Calm - N/A   Scattered Clouds
9:50 PM 73.4 °F 50.0 °F 44% 29.89 in 6.2 mi Calm Calm - N/A   Scattered Clouds
10:20 PM 73.4 °F 50.0 °F 44% 29.92 in 6.2 mi Variable 4.6 mph - N/A   Scattered Clouds
10:50 PM 73.4 °F 48.2 °F 41% 29.92 in 6.2 mi Variable 4.6 mph - N/A   Scattered Clouds